Погода в Молодежном

Россия / Сахалинская область     51°01′03″N   142°39′06″E
темп.,
°C
ветер,
м/с
пор.,
м/с
влажн.,
%
обл.,
%
осадки,
мм/ч
давл.,
гПа
погр.,
м
15 апреля, чт
чт1523:00−7зюз61285100 1.8 10001369
02:00−8з51092100 0.4 10021167
05:00−7зюз498198 1.1 1003990
08:00−6юз51191100 0.4 10051052
11:00−3зюз5867100 1.4 10061593
14:00−2з61062100 0.1 10071866
17:00−1з5961100 0.2 10091701
20:00−4юз25806 0.1 1012130
16 апреля, пт
пт1623:00−6ю259133 0.1 1015103
02:00−6ю36937 0.0 1016127
05:00−5ю38925 0.0 1018193
08:00−4ю410825 0.0 1019365
11:00+2ююз47613 0.0 1020889
14:00+5юз46423 0.0 10201655
17:00+6юз35465 0.0 10191313
20:00+1юв118779 0.0 102010
17 апреля, сб
сб1723:00−2ю229478 0.0 102038
02:000ю398698 0.0 1019238
05:00+2ю51574100 0.0 1018637
08:00+3ю31277100 0.0 1017440
11:00+7ю5126779 0.0 1015812
14:00+4ю31089100 0.0 1015679
17:00+3ююв31097100 0.0 1013515
20:00+2ю31097100 0.1 1014469
18 апреля, вс
вс1823:00+2ю31097100 0.2 1015464
02:00+2ю31098100 0.0 1015434
05:00+1ююз139984 0.0 1015102
08:00+2ю139892 0.0 1016112
11:00+7ююз137529 0.0 1015698
14:00+10юз136822 0.0 10131019
17:00+11с116327 0.0 10121070
20:00+6св2391100 0.0 101266
19 апреля, пн
пн1923:00+2ссв2396100 0.0 101276
02:00+1ссв359687 0.0 1011184
05:00+2св41292100 0.0 1010676
08:00+1св51494100 0.0 10091001
11:00+1ссв71695100 0.3 10071058
14:00+1ссв81896100 4.3 1003989
17:000ссв81596100 8.9 1001962
20:00−1ссв61394100 1.3 1000850